Location: Newark
(41.7772°N, 74.7403°W)
Time: 13:36:34
(UTC+00:00)

Transit 4A - Pass Details

Date: 02 June 2020
Orbit: 866 x 978 km, 66.8° (Epoch: 06 July)

Event Time Altitude Azimuth Distance (km) Brightness Sun altitude
Exits shadow 04:11:53 10° 92° (E) 2,521 10.0 -25.1°
Drops below altitude 10° 04:11:58 10° 91° (E) 2,525 10.0 -25.1°
Sets 04:17:07 0° 53° (NE) 3,489 11.3 -25.3°
